Location: �perlecques
(50.8057°N, 2.1521°E)
Time: 00:50:26
(UTC+00:00)

SO-50 - Visible Passes

Search period start: 31 March 2023 00:00
Search period end: 10 April 2023 00:00
Orbit: 586 x 691 km, 64.6° (Epoch: 29 March)

Date Brightness Start Highest point End Pass type
(mag) Time Alt. Az. Time Alt. Az. Time Alt. Az.
31 Mar ? 01:17:32 23° NNW 01:17:41 23° NNW 01:21:37 10° NNE visible
31 Mar ? 02:56:39 10° NW 02:59:42 16° N 03:02:43 10° NE visible
31 Mar ? 04:37:41 10° NNW 04:41:41 24° NNE 04:45:36 10° E visible
01 Apr ? 00:02:29 26° NNE 00:02:29 26° NNE 00:04:57 10° NE visible
01 Apr ? 01:39:58 15° NW 01:41:52 18° NNW 01:45:16 10° NNE visible
01 Apr ? 03:20:45 10° NNW 03:23:59 17° N 03:27:12 10° NE visible
01 Apr ? 22:47:22 15° NE 22:47:22 15° NE 22:48:14 10° NE visible
02 Apr ? 00:24:51 27° NNW 00:24:51 27° NNW 00:28:27 10° NNE visible
02 Apr ? 02:03:03 10° NW 02:06:08 16° N 02:09:12 10° NE visible
02 Apr ? 03:44:30 10° NNW 03:48:13 21° NNE 03:51:51 10° ENE visible
02 Apr ? 23:09:36 26° NNE 23:09:36 26° NNE 23:11:48 10° NE visible
03 Apr ? 00:47:05 19° NW 00:48:21 21° NNW 00:52:01 10° NNE visible
03 Apr ? 02:27:20 10° NW 02:30:26 16° N 02:33:29 10° NE visible
03 Apr ? 04:08:04 10° NNW 04:12:18 29° NNE 04:16:25 10° E visible
03 Apr ? 21:54:12 15° NE 21:54:12 15° NE 21:54:59 10° NE visible
03 Apr ? 23:31:40 32° NNW 23:31:40 32° NNW 23:35:17 10° NNE visible
04 Apr ? 01:09:20 10° NW 01:12:34 17° N 01:15:46 10° NNE visible
04 Apr ? 02:51:15 10° NNW 02:54:41 19° NNE 02:58:04 10° ENE visible
04 Apr ? 04:31:34 10° NW 04:36:13 44° NE 04:40:44 10° ESE visible
04 Apr ? 22:15:59 31° NNE 22:15:59 31° NNE 22:18:36 10° NE visible
04 Apr ? 23:53:25 21° NW 23:54:50 24° NNW 23:58:48 10° NNE visible
05 Apr ? 01:33:48 10° NW 01:36:50 16° N 01:39:50 10° NE visible
05 Apr ? 03:14:53 10° NNW 03:18:50 24° NNE 03:22:42 10° ENE visible
05 Apr ? 20:59:45 22° ENE 20:59:45 22° ENE 21:01:38 10° NE visible
05 Apr ? 22:37:07 43° NW 22:37:25 43° NW 22:42:06 10° NE visible
06 Apr ? 00:15:31 10° WNW 00:18:58 19° NNW 00:22:24 10° NNE visible
06 Apr ? 01:57:53 10° NNW 02:01:06 17° N 02:04:16 10° NE visible
06 Apr ? 03:38:23 10° NNW 03:42:49 34° NNE 03:47:09 10° E visible
06 Apr ? 19:41:11 15° ESE 19:41:11 15° ESE 19:43:34 10° ENE visible
06 Apr ? 21:15:32 10° SW 21:20:26 81° SE 21:25:22 10° NE visible
06 Apr ? 22:57:04 10° W 23:01:20 28° NNW 23:05:34 10° NNE visible
07 Apr ? 00:40:07 10° NW 00:43:12 16° N 00:46:16 10° NE visible
07 Apr ? 02:21:38 10° NNW 02:25:17 21° NNE 02:28:53 10° ENE visible
07 Apr ? 04:01:52 10° NW 04:06:39 56° NE 04:11:15 10° ESE visible
07 Apr ? 19:59:41 10° S 20:03:54 30° ESE 20:08:09 10° ENE visible
07 Apr ? 21:39:14 10° WSW 21:44:03 57° NW 21:48:54 10° NE visible
07 Apr ? 23:21:40 10° WNW 23:25:23 21° NNW 23:29:06 10° NNE visible
08 Apr ? 01:04:24 10° NW 01:07:28 16° N 01:10:30 10° NE visible
08 Apr ? 02:45:10 10° NNW 02:49:22 28° NNE 02:53:27 10° E visible
08 Apr ? 04:25:26 10° NW 04:30:16 81° SW 04:34:55 10° SE visible
08 Apr ? 20:22:25 10° SSW 20:27:13 58° SE 20:32:02 10° NE visible
08 Apr ? 22:03:21 10° W 22:07:51 35° NW 22:12:22 10° NNE visible
08 Apr ? 23:46:20 10° NW 23:49:34 17° N 23:52:48 10° NNE visible
09 Apr ? 01:28:18 10° NNW 01:31:42 18° NNE 01:35:02 10° ENE visible
09 Apr ? 03:08:39 10° NW 03:13:16 42° NE 03:17:44 10° ESE visible
09 Apr ? 19:07:13 10° SSE 19:10:51 21° ESE 19:14:28 10° ENE visible
09 Apr ? 20:45:49 10° SW 20:50:43 77° NW 20:55:38 10° NE visible
09 Apr ? 22:27:49 10° W 22:31:50 24° NNW 22:35:50 10° NNE visible
